Location: Saginaw
(43.4195°N, 83.9508°W)
Time: 06:32:40
(UTC-05:00)

Daily predictions for brighter satellites

Satellite Brightness Start Highest point End
(mag) Time Altitude Azimuth Time Altitude Azimuth Time Altitude Azimuth
Cosmos 2219 Rocket 3.5 18:36:12 10° NW 18:41:37 48° WSW 18:47:00 10° S
COSMO-SKYMED 1 2.5 18:38:38 10° NNE 18:43:00 74° ESE 18:47:20 10° S
Cosmos 2285 Rocket 4.3 18:50:02 10° SSW 18:56:21 77° WNW 19:02:47 10° NNE
USA 215 4.0 18:51:08 10° ENE 18:56:54 32° SE 19:02:37 10° S
MOS 1 4.3 18:51:23 10° SSE 18:57:02 88° ENE 19:02:46 10° NNW
Cosmos 2227 Rocket 2.2 18:51:37 10° SSW 18:57:17 89° WNW 19:02:58 10° NNE
Cosmos 2237 Rocket 2.6 18:51:46 10° NNW 18:57:22 70° WSW 19:02:57 10° SSE
FENGYUN 3A 3.8 18:52:56 10° S 18:58:20 80° WSW 19:03:47 10° NNW
SeaSat 1 3.4 18:54:18 10° ESE 18:58:24 27° NE 19:02:32 10° N
SJ-6B 3.9 18:57:20 10° ESE 19:00:20 23° ENE 19:03:22 10° NNE
Envisat 4.1 18:56:44 10° ESE 19:00:44 24° ENE 19:04:44 10° NNE
SL-16 R/B 2.3 18:55:44 10° NNW 19:01:19 54° ENE 19:06:51 10° SE
Tiangong 2 2.3 18:59:28 10° W 19:02:27 38° SSW 19:05:26 10° SE
Cosmos 44 Rocket 3.5 18:59:53 10° NNW 19:04:49 53° NE 19:09:50 10° SE
Cosmos 1674 Rocket 3.4 19:02:39 10° N 19:07:01 72° E 19:11:18 10° SSE
FREGAT/IRIS 3.1 19:04:20 10° SE 19:07:04 35° ENE 19:09:50 10° N
NOSS 3-2 (C) 3.6 19:01:19 10° SW 19:07:16 80° NW 19:13:56 10° NE
H-2A R/B 2.7 19:05:58 10° SSE 19:09:50 66° ENE 19:13:44 10° N
Cosmos 2034 Rocket 4.4 19:04:12 10° N 19:10:14 42° ENE 19:16:11 10° SE
CZ-4 R/B 4.1 19:07:43 10° SSW 19:11:03 24° W 19:14:21 10° NW
Cosmos 2297 Rocket 2.3 19:05:34 10° SSW 19:11:13 81° WNW 19:16:56 10° NNE
HJ-1C 4.2 19:09:07 10° SE 19:12:11 31° ENE 19:15:16 10° N
Meteor 1-14 Rocket 4.3 19:06:45 10° S 19:12:26 63° E 19:18:17 10° NNE
Okean 1 4.0 19:09:04 10° NNE 19:12:40 32° ENE 19:16:15 10° SE
MTI 4.3 19:09:51 10° N 19:13:01 61° WNW 19:16:09 10° SSW
MOS 1-B Rocket 4.4 19:06:46 10° S 19:13:08 68° WSW 19:18:52 10° NNW
Okean 3 3.3 19:10:37 10° N 19:14:47 71° E 19:18:57 10° SSE
Cosmos 1908 Rocket 3.8 19:11:49 10° SSE 19:16:07 49° E 19:20:27 10° NNE
Cosmos 921 Rocket 3.6 19:15:01 10° N 19:19:14 38° ENE 19:23:25 10° SE
Meteor 1-20 Rocket 4.3 19:13:43 10° S 19:19:17 59° E 19:25:00 10° NNE
Cosmos 1633 2.4 19:16:13 10° S 19:19:43 61° E 19:23:15 10° NNE
Cosmos 1733 Rocket 3.7 19:18:30 10° SSW 19:22:44 57° W 19:27:01 10° N
ERS-2 2.0 19:19:12 10° SSE 19:22:51 68° ENE 19:26:32 10° N
Cosmos 1812 3.1 19:22:39 10° NNW 19:26:31 68° W 19:30:21 10° S
CZ-2D R/B 3.8 19:23:36 10° SE 19:27:13 38° ENE 19:30:51 10° N
ALOS 4.1 19:26:07 10° SSW 19:30:21 35° W 19:34:38 10° NNW
USA 267 4.0 19:27:11 18° ENE 19:31:25 36° NNE 19:37:16 10° NW
CENTAUR R/B 2.5 19:26:30 10° SSW 19:32:26 69° ESE 19:39:15 10° NE
CZ-4C R/B 3.9 19:28:33 10° NNW 19:34:15 27° NE 19:37:37 20° ENE
Meteor 1-18 Rocket 4.1 19:28:42 10° N 19:34:20 83° E 19:39:53 10° SSE
Cosmos 44 3.7 19:30:51 10° NW 19:35:51 69° WSW 19:41:04 10° SSE
SL-8 R/B 3.6 19:33:02 10° WSW 19:37:49 87° SSE 19:40:30 26° ENE
Cosmos 1602 4.2 19:35:54 10° SSE 19:39:31 37° E 19:43:08 10° NNE
Cosmos 2082 4.4 19:34:24 10° SW 19:39:53 54° WNW 19:45:26 10° NNE
Cosmos 1975 Rocket 3.2 19:37:36 10° N 19:41:55 50° ENE 19:46:16 10° SSE
Resurs 01 Rocket 2.3 19:42:38 31° E 19:43:15 32° ENE 19:47:12 10° N
Lacrosse 5 4.4 19:42:41 10° WNW 19:46:14 19° WSW 19:49:47 10° SSW
Meteor 1-25 Rocket 4.3 19:41:18 10° SSW 19:46:50 76° W 19:52:25 10° N
Cosmos 1452 Rocket 4.3 19:41:55 10° NNW 19:47:03 54° WSW 19:52:08 10° S
Meteor 1-19 Rocket 4.2 19:44:13 10° N 19:49:37 53° ENE 19:54:50 11° SSE
Spot 2 Rocket 4.1 19:49:48 32° E 19:50:36 34° ENE 19:55:10 10° N
Iridium 4 Rocket 3.4 19:46:50 10° N 19:51:46 75° W 19:56:15 10° S
Geosat 4.4 19:51:11 32° ENE 19:52:31 38° ESE 19:57:10 10° S
Meteor 2-4 Rocket 4.1 19:47:30 10° N 19:52:58 40° ENE 19:54:53 31° ESE
Cosmos 1048 Rocket 3.9 19:48:41 10° SSW 19:54:01 85° ESE 19:59:19 10° NNE
Cosmos 158 Rocket 4.2 19:49:22 10° SSW 19:54:12 63° WNW 19:59:03 10° NNE
Meteor 1-11 Rocket 4.1 19:49:07 10° SSE 19:54:12 38° E 19:59:25 10° NNE
Cosmos 1437 Rocket 2.7 19:50:16 10° S 19:54:17 73° E 19:58:24 10° NNE
CRYOSAT 2 4.2 19:52:19 10° N 19:57:13 73° E 20:02:04 10° S
Cosmos 2227 4.3 19:54:02 10° S 19:59:34 52° ESE 20:03:12 21° NE
Gbstr 26 Del rocket 4.1 19:56:40 10° SSW 19:58:46 24° SSE 19:58:46 24° SSE
COSMOS 2455 3.8 19:55:58 10° SSE 19:59:33 26° SE 19:59:33 26° SE
USA 186 3.4 20:03:05 25° N 20:03:05 25° N 20:04:42 10° N
Cosmos 1939 Rocket 3.5 20:05:46 41° NE 20:05:46 41° NE 20:08:53 10° N
Tsikada Rocket 3.9 19:59:14 10° S 20:05:37 76° E 20:12:02 10° N
Cosmos 1782 Rocket 3.8 20:09:24 10° SSW 20:13:49 68° W 20:18:14 10° N
Sich 1 Rocket 4.5 20:10:52 10° SSW 20:15:15 50° WNW 20:19:36 10° N
ATLAS CENTAUR R/B 3.2 20:20:14 10° NNW 20:21:58 20° N 20:21:58 20° N
OAO 2 Rocket 4.4 20:20:21 10° WSW 20:24:26 30° S 20:24:26 30° S
Cosmos 1943 3.4 20:22:00 10° NNW 20:27:09 50° NE 20:27:09 50° NE
Okean 2 Rocket 3.2 20:26:58 10° SSW 20:31:20 72° W 20:35:45 10° N
ARGOS Delta rocket 4.5 20:27:41 10° N 20:32:28 54° WNW 20:36:58 10° SSW
SeaSat 1 3.3 20:32:53 23° S 20:35:41 47° WSW 20:40:28 10° NW
Meteor 1-23 Rocket 4.5 20:33:26 10° N 20:38:15 54° NE 20:38:15 54° NE
Envisat 4.0 20:34:37 10° S 20:39:28 45° W 20:44:21 10° NNW
Thor Agena Rocket 4.4 20:35:09 10° N 20:40:01 47° WNW 20:44:50 10° SW
USA 215 3.3 20:37:21 36° NE 20:40:16 76° NW 20:46:47 10° WSW
SL-16 R/B 4.4 20:40:41 10° NW 20:45:00 23° W 20:49:18 10° SSW
Cosmos 1110 Rocket 4.4 20:49:17 10° NNW 20:54:28 58° WSW 20:54:46 57° WSW
Cosmos 1603 4.4 20:58:28 10° NW 21:03:52 48° WSW 21:04:35 45° SW
H-2A R/B 4.2 21:11:56 17° N 21:11:56 17° N 21:13:09 10° N
Cosmos 1634 Rocket 4.3 21:03:06 10° NNW 21:09:10 61° W 21:10:07 54° SW
USA 267 3.3 21:14:32 75° NNW 21:14:32 75° NNW 21:20:31 10° NW
Resurs 01 Rocket 3.7 21:20:12 24° W 21:20:12 24° W 21:23:24 10° NW
CENTAUR R/B 4.1 21:18:11 10° W 21:23:44 31° NW 21:27:59 18° NNE
CZ-4C R/B 3.0 21:16:36 10° NW 21:22:51 70° NNW 21:22:51 70° NNW
